| time (UTC) | temp F | wind direction | speed MPH | gust MPH | rain 1hr in | rain 24hr in | rain mn in | humidity % | barometer mb |
| 20260505185539 | 65 | 10 | 1.0 | 5.0 | 0.00 | 0.00 | 0.00 | 62 | 1017.6 |
| 20260505185035 | 65 | 49 | 2.0 | 5.0 | 0.00 | 0.00 | 0.00 | 60 | 1017.4 |
| 20260505184545 | 66 | 41 | 2.0 | 3.0 | 0.00 | 0.00 | 0.00 | 57 | 1017.4 |
| 20260505184035 | 66 | 355 | 1.0 | 4.0 | 0.00 | 0.00 | 0.00 | 58 | 1017.4 |
| 20260505183537 | 66 | 360 | 0.0 | 4.0 | 0.00 | 0.00 | 0.00 | 57 | 1017.4 |
| 20260505183041 | 67 | 301 | 2.0 | 3.0 | 0.00 | 0.00 | 0.00 | 55 | 1017.3 |
| 20260505182538 | 67 | 292 | 0.0 | 4.0 | 0.00 | 0.00 | 0.00 | 54 | 1017.2 |
| 20260505182034 | 67 | 299 | 3.0 | 4.0 | 0.00 | 0.00 | 0.00 | 55 | 1017.3 |
| 20260505181535 | 67 | 273 | 2.0 | 5.0 | 0.00 | 0.00 | 0.00 | 55 | 1017.3 |
| 20260505181037 | 67 | 246 | 2.0 | 5.0 | 0.00 | 0.00 | 0.00 | 54 | 1017.2 |
| 20260505180536 | 68 | 282 | 2.0 | 4.0 | 0.00 | 0.00 | 0.00 | 53 | 1017.1 |
| 20260505180034 | 68 | 223 | 2.0 | 4.0 | 0.00 | 0.00 | 0.00 | 52 | 1017.1 |
| 20260505175533 | 68 | 241 | 2.0 | 3.0 | 0.00 | 0.00 | 0.00 | 51 | 1017.0 |
| 20260505175033 | 69 | 246 | 0.0 | 3.0 | 0.00 | 0.00 | 0.00 | 50 | 1017.0 |
| 20260505174533 | 69 | 249 | 0.0 | 5.0 | 0.00 | 0.00 | 0.00 | 49 | 1017.0 |
| 20260505174033 | 69 | 259 | 3.0 | 7.0 | 0.00 | 0.00 | 0.00 | 48 | 1017.0 |
| 20260505173533 | 69 | 270 | 4.0 | 7.0 | 0.00 | 0.00 | 0.00 | 48 | 1016.9 |
| 20260505173033 | 69 | 269 | 2.0 | 4.0 | 0.00 | 0.00 | 0.00 | 47 | 1016.8 |
| 20260505172532 | 70 | 271 | 3.0 | 6.0 | 0.00 | 0.00 | 0.00 | 47 | 1016.8 |
| 20260505172033 | 70 | 181 | 4.0 | 6.0 | 0.00 | 0.00 | 0.00 | 49 | 1016.9 |
| 20260505171534 | 70 | 144 | 1.0 | 8.0 | 0.00 | 0.00 | 0.00 | 50 | 1016.9 |
| 20260505171032 | 70 | 117 | 5.0 | 8.0 | 0.00 | 0.00 | 0.00 | 49 | 1017.0 |
| 20260505170532 | 70 | 155 | 3.0 | 8.0 | 0.00 | 0.00 | 0.00 | 50 | 1017.1 |
| 20260505170036 | 70 | 161 | 5.0 | 8.0 | 0.00 | 0.00 | 0.00 | 50 | 1017.1 |
| 20260505165531 | 70 | 155 | 5.0 | 9.0 | 0.00 | 0.00 | 0.00 | 50 | 1016.9 |
| 20260505165031 | 71 | 142 | 4.0 | 9.0 | 0.00 | 0.00 | 0.00 | 51 | 1016.9 |
| 20260505164535 | 71 | 155 | 3.0 | 10.0 | 0.00 | 0.00 | 0.00 | 51 | 1016.9 |
| 20260505164030 | 71 | 166 | 6.0 | 10.0 | 0.00 | 0.00 | 0.00 | 50 | 1017.0 |
| 20260505163529 | 72 | 155 | 3.0 | 9.0 | 0.00 | 0.00 | 0.00 | 49 | 1017.0 |
| 20260505163029 | 72 | 173 | 5.0 | 7.0 | 0.00 | 0.00 | 0.00 | 49 | 1017.1 |
| 20260505162532 | 73 | 195 | 4.0 | 5.0 | 0.00 | 0.00 | 0.00 | 37 | 1017.1 |
| 20260505162029 | 73 | 196 | 2.0 | 7.0 | 0.00 | 0.00 | 0.00 | 37 | 1017.0 |
| 20260505161529 | 73 | 171 | 4.0 | 9.0 | 0.00 | 0.00 | 0.00 | 37 | 1017.0 |
| 20260505161031 | 73 | 225 | 3.0 | 6.0 | 0.00 | 0.00 | 0.00 | 37 | 1016.9 |
| 20260505160527 | 74 | 244 | 4.0 | 8.0 | 0.00 | 0.00 | 0.00 | 37 | 1016.8 |
| 20260505153016 | 74 | 240 | 5.0 | 7.0 | 0.00 | 0.00 | 0.00 | 36 | 1016.7 |
| 20260505152516 | 74 | 252 | 4.0 | 8.0 | 0.00 | 0.00 | 0.00 | 36 | 1016.7 |
| 20260505152014 | 74 | 259 | 6.0 | 8.0 | 0.00 | 0.00 | 0.00 | 36 | 1016.6 |
| 20260505151517 | 74 | 226 | 6.0 | 9.0 | 0.00 | 0.00 | 0.00 | 37 | 1016.5 |
| 20260505151013 | 74 | 265 | 5.0 | 9.0 | 0.00 | 0.00 | 0.00 | 37 | 1016.5 |
| 20260505150513 | 74 | 252 | 5.0 | 12.0 | 0.00 | 0.00 | 0.00 | 37 | 1016.6 |
| 20260505140503 | 74 | 224 | 7.0 | 11.0 | 0.00 | 0.00 | 0.00 | 34 | 1016.7 |
| 20260505124556 | 74 | 219 | 9.0 | 15.0 | 0.00 | 0.00 | 0.00 | 33 | 1017.3 |
| 20260505124053 | 75 | 193 | 7.0 | 13.0 | 0.00 | 0.00 | 0.00 | 33 | 1017.2 |
| 20260505123552 | 75 | 229 | 6.0 | 12.0 | 0.00 | 0.00 | 0.00 | 33 | 1017.3 |
| 20260505123054 | 75 | 243 | 9.0 | 16.0 | 0.00 | 0.00 | 0.00 | 33 | 1017.3 |
| 20260505122550 | 75 | 203 | 7.0 | 16.0 | 0.00 | 0.00 | 0.00 | 33 | 1017.3 |
| 20260505122050 | 75 | 188 | 7.0 | 12.0 | 0.00 | 0.00 | 0.00 | 34 | 1017.3 |
| 20260505121551 | 76 | 180 | 7.0 | 12.0 | 0.00 | 0.00 | 0.00 | 33 | 1017.4 |
| 20260505121049 | 75 | 281 | 7.0 | 13.0 | 0.00 | 0.00 | 0.00 | 34 | 1017.7 |
| 20260505120548 | 74 | 188 | 5.0 | 13.0 | 0.00 | 0.00 | 0.00 | 35 | 1017.7 |
| 20260505120057 | 74 | 207 | 5.0 | 17.0 | 0.00 | 0.00 | 0.00 | 36 | 1017.8 |
| 20260505115548 | 74 | 215 | 10.0 | 17.0 | 0.00 | 0.00 | 0.00 | 35 | 1017.8 |
| 20260505115048 | 74 | 170 | 9.0 | 15.0 | 0.00 | 0.00 | 0.00 | 35 | 1017.7 |
| 20260505114547 | 74 | 159 | 10.0 | 16.0 | 0.00 | 0.00 | 0.00 | 36 | 1017.8 |
| 20260505114046 | 74 | 188 | 10.0 | 16.0 | 0.00 | 0.00 | 0.00 | 36 | 1017.8 |
| 20260505113547 | 75 | 167 | 8.0 | 17.0 | 0.00 | 0.00 | 0.00 | 37 | 1017.7 |
| 20260505113049 | 76 | 192 | 6.0 | 16.0 | 0.00 | 0.00 | 0.00 | 37 | 1017.6 |
| 20260505112544 | 75 | 244 | 7.0 | 20.0 | 0.00 | 0.00 | 0.00 | 38 | 1017.7 |
| 20260505112044 | 76 | 291 | 11.0 | 20.0 | 0.00 | 0.00 | 0.00 | 34 | 1017.7 |
| 20260505111546 | 75 | 277 | 6.0 | 16.0 | 0.00 | 0.00 | 0.00 | 37 | 1017.8 |
| 20260505111045 | 75 | 255 | 7.0 | 10.0 | 0.00 | 0.00 | 0.00 | 39 | 1017.7 |
| 20260505110541 | 75 | 182 | 5.0 | 10.0 | 0.00 | 0.00 | 0.00 | 36 | 1017.8 |
| 20260505102035 | 73 | 175 | 5.0 | 15.0 | 0.00 | 0.00 | 0.00 | 38 | 1018.0 |
| 20260505101536 | 73 | 225 | 8.0 | 15.0 | 0.00 | 0.00 | 0.00 | 39 | 1018.2 |
| 20260505101032 | 74 | 250 | 9.0 | 15.0 | 0.00 | 0.00 | 0.00 | 38 | 1018.2 |
| 20260505100531 | 73 | 217 | 9.0 | 16.0 | 0.00 | 0.00 | 0.00 | 39 | 1018.0 |
| 20260505100034 | 73 | 253 | 9.0 | 14.0 | 0.00 | 0.00 | 0.00 | 39 | 1018.1 |
| 20260505095527 | 73 | 263 | 9.0 | 15.0 | 0.00 | 0.00 | 0.00 | 39 | 1018.1 |
| 20260505095026 | 73 | 237 | 6.0 | 13.0 | 0.00 | 0.00 | 0.00 | 40 | 1018.1 |
| 20260505094527 | 72 | 241 | 5.0 | 13.0 | 0.00 | 0.00 | 0.00 | 40 | 1018.3 |
| 20260505094024 | 72 | 271 | 2.0 | 15.0 | 0.00 | 0.00 | 0.00 | 39 | 1018.3 |
| 20260505093523 | 72 | 288 | 10.0 | 15.0 | 0.00 | 0.00 | 0.00 | 40 | 1018.4 |
| 20260505093025 | 72 | 259 | 9.0 | 14.0 | 0.00 | 0.00 | 0.00 | 39 | 1018.5 |
| 20260505092521 | 72 | 293 | 9.0 | 13.0 | 0.00 | 0.00 | 0.00 | 40 | 1018.5 |
| 20260505092020 | 72 | 242 | 7.0 | 13.0 | 0.00 | 0.00 | 0.00 | 41 | 1018.5 |
| 20260505091519 | 72 | 211 | 6.0 | 16.0 | 0.00 | 0.00 | 0.00 | 40 | 1018.5 |
| 20260505091017 | 71 | 222 | 9.0 | 16.0 | 0.00 | 0.00 | 0.00 | 41 | 1018.5 |
| 20260505090516 | 72 | 261 | 7.0 | 11.0 | 0.00 | 0.00 | 0.00 | 41 | 1018.5 |
| 20260505090020 | 71 | 248 | 6.0 | 10.0 | 0.00 | 0.00 | 0.00 | 40 | 1018.4 |
| 20260505085515 | 71 | 219 | 7.0 | 10.0 | 0.00 | 0.00 | 0.00 | 41 | 1018.5 |
| 20260505085014 | 71 | 234 | 6.0 | 12.0 | 0.00 | 0.00 | 0.00 | 40 | 1018.4 |
| 20260505084525 | 70 | 200 | 5.0 | 10.0 | 0.00 | 0.00 | 0.00 | 43 | 1018.6 |
| 20260505084011 | 70 | 208 | 4.0 | 10.0 | 0.00 | 0.00 | 0.00 | 42 | 1018.6 |
| 20260505083510 | 70 | 215 | 3.0 | 8.0 | 0.00 | 0.00 | 0.00 | 42 | 1018.7 |
| 20260505083010 | 71 | 186 | 4.0 | 8.0 | 0.00 | 0.00 | 0.00 | 42 | 1018.8 |
| 20260505082509 | 70 | 225 | 6.0 | 11.0 | 0.00 | 0.00 | 0.00 | 43 | 1018.9 |
| 20260505082008 | 70 | 256 | 6.0 | 11.0 | 0.00 | 0.00 | 0.00 | 43 | 1018.8 |
| 20260505081508 | 69 | 208 | 4.0 | 9.0 | 0.00 | 0.00 | 0.00 | 44 | 1018.9 |
| 20260505081005 | 69 | 219 | 5.0 | 8.0 | 0.00 | 0.00 | 0.00 | 43 | 1018.9 |
| 20260505080507 | 68 | 208 | 4.0 | 8.0 | 0.00 | 0.00 | 0.00 | 45 | 1018.9 |
| 20260505080008 | 68 | 259 | 2.0 | 8.0 | 0.00 | 0.00 | 0.00 | 46 | 1018.9 |
| 20260505075502 | 67 | 211 | 4.0 | 7.0 | 0.00 | 0.00 | 0.00 | 46 | 1018.9 |
| 20260505075101 | 67 | 217 | 3.0 | 7.0 | 0.00 | 0.00 | 0.00 | 46 | 1019.0 |
| 20260505074559 | 67 | 248 | 3.0 | 9.0 | 0.00 | 0.00 | 0.00 | 46 | 1018.9 |
| 20260505074058 | 66 | 257 | 5.0 | 9.0 | 0.00 | 0.00 | 0.00 | 48 | 1018.9 |
| 20260505073557 | 66 | 272 | 5.0 | 9.0 | 0.00 | 0.00 | 0.00 | 47 | 1018.9 |
| 20260505073058 | 66 | 271 | 3.0 | 6.0 | 0.00 | 0.00 | 0.00 | 47 | 1019.0 |
| 20260505072558 | 65 | 217 | 2.0 | 5.0 | 0.00 | 0.00 | 0.00 | 49 | 1018.9 |
| 20260505072056 | 66 | 243 | 3.0 | 5.0 | 0.00 | 0.00 | 0.00 | 47 | 1018.9 |
| 20260505071552 | 65 | 203 | 0.0 | 5.0 | 0.00 | 0.00 | 0.00 | 50 | 1019.0 |
| 20260505071050 | 65 | 263 | 3.0 | 5.0 | 0.00 | 0.00 | 0.00 | 50 | 1018.9 |
| 20260505070549 | 64 | 256 | 1.0 | 4.0 | 0.00 | 0.00 | 0.00 | 51 | 1018.9 |
| 20260505070101 | 64 | 214 | 2.0 | 4.0 | 0.00 | 0.00 | 0.00 | 52 | 1018.9 |
| 20260505065547 | 63 | 209 | 3.0 | 5.0 | 0.00 | 0.00 | 0.00 | 52 | 1018.8 |
| 20260505065045 | 63 | 249 | 1.0 | 5.0 | 0.00 | 0.00 | 0.00 | 53 | 1018.8 |
| 20260505064537 | 62 | 225 | 2.0 | 5.0 | 0.00 | 0.00 | 0.00 | 54 | 1018.8 |
| 20260505064033 | 62 | 259 | 2.0 | 4.0 | 0.00 | 0.00 | 0.00 | 54 | 1018.8 |
| 20260505063533 | 62 | 226 | 0.0 | 4.0 | 0.00 | 0.00 | 0.00 | 54 | 1018.9 |
| 20260505063031 | 62 | 198 | 2.0 | 4.0 | 0.00 | 0.00 | 0.00 | 54 | 1018.8 |
| 20260505062530 | 62 | 248 | 0.0 | 4.0 | 0.00 | 0.00 | 0.00 | 55 | 1018.8 |
| 20260505062027 | 61 | 273 | 2.0 | 4.0 | 0.00 | 0.00 | 0.00 | 57 | 1018.7 |
| 20260505061531 | 61 | 265 | 2.0 | 4.0 | 0.00 | 0.00 | 0.00 | 57 | 1018.7 |
| 20260505061029 | 60 | 264 | 1.0 | 3.0 | 0.00 | 0.00 | 0.00 | 58 | 1018.7 |
| 20260505060525 | 61 | 317 | 1.0 | 3.0 | 0.00 | 0.00 | 0.00 | 57 | 1018.6 |
| 20260505060025 | 60 | 281 | 1.0 | 3.0 | 0.00 | 0.00 | 0.00 | 58 | 1018.7 |
| 20260505055522 | 60 | 275 | 0.0 | 3.0 | 0.00 | 0.00 | 0.00 | 59 | 1018.8 |
| 20260505055021 | 59 | 275 | 0.0 | 3.0 | 0.00 | 0.00 | 0.00 | 60 | 1018.7 |
| 20260505054522 | 59 | 61 | 1.0 | 3.0 | 0.00 | 0.00 | 0.00 | 61 | 1018.8 |
| 20260505054018 | 58 | 344 | 1.0 | 3.0 | 0.00 | 0.00 | 0.00 | 63 | 1018.7 |
| 20260505053517 | 58 | 332 | 1.0 | 3.0 | 0.00 | 0.00 | 0.00 | 64 | 1018.8 |
| 20260505053022 | 58 | 331 | 0.0 | 3.0 | 0.00 | 0.00 | 0.00 | 65 | 1018.8 |
| 20260505052514 | 57 | 338 | 0.0 | 4.0 | 0.00 | 0.00 | 0.00 | 69 | 1018.8 |
| 20260505052015 | 56 | 340 | 2.0 | 4.0 | 0.00 | 0.00 | 0.00 | 70 | 1018.7 |
| 20260505051514 | 56 | 294 | 0.0 | 3.0 | 0.00 | 0.00 | 0.00 | 70 | 1018.7 |
| 20260505051010 | 56 | 304 | 0.0 | 3.0 | 0.00 | 0.00 | 0.00 | 71 | 1018.7 |
| 20260505050514 | 55 | 319 | 0.0 | 3.0 | 0.00 | 0.00 | 0.00 | 71 | 1018.7 |
| 20260505041601 | 49 | 39 | 2.0 | 5.0 | 0.00 | 0.00 | 0.00 | 79 | 1018.5 |
| 20260505041053 | 49 | 50 | 3.0 | 5.0 | 0.00 | 0.00 | 0.00 | 78 | 1018.5 |
| 20260505040552 | 49 | 355 | 1.0 | 5.0 | 0.00 | 0.00 | 0.00 | 79 | 1018.5 |
| 20260505040100 | 48 | 35 | 2.0 | 5.0 | 0.00 | 0.00 | 0.00 | 79 | 1018.4 |
| 20260505035548 | 48 | 42 | 1.0 | 4.0 | 0.00 | 0.00 | 0.00 | 79 | 1018.4 |
| 20260505035050 | 48 | 18 | 1.0 | 3.0 | 0.00 | 0.00 | 0.00 | 79 | 1018.4 |
| 20260505034547 | 49 | 15 | 1.0 | 3.0 | 0.00 | 0.00 | 0.00 | 79 | 1018.4 |
| 20260505034047 | 48 | 15 | 1.0 | 5.0 | 0.00 | 0.00 | 0.00 | 78 | 1018.4 |
| 20260505033547 | 49 | 11 | 2.0 | 5.0 | 0.00 | 0.00 | 0.00 | 79 | 1018.5 |
| 20260505033049 | 48 | 50 | 2.0 | 4.0 | 0.00 | 0.00 | 0.00 | 79 | 1018.5 |
| 20260505032546 | 48 | 50 | 1.0 | 3.0 | 0.00 | 0.00 | 0.00 | 79 | 1018.4 |
| 20260505032049 | 48 | 54 | 1.0 | 4.0 | 0.00 | 0.00 | 0.00 | 79 | 1018.4 |
| 20260505031550 | 48 | 46 | 2.0 | 5.0 | 0.00 | 0.00 | 0.00 | 80 | 1018.4 |
| 20260505031044 | 47 | 55 | 3.0 | 6.0 | 0.00 | 0.00 | 0.00 | 80 | 1018.4 |
| 20260505030543 | 47 | 21 | 3.0 | 6.0 | 0.00 | 0.00 | 0.00 | 79 | 1018.4 |
| 20260505030044 | 47 | 11 | 2.0 | 4.0 | 0.00 | 0.00 | 0.00 | 79 | 1018.5 |
| 20260505025543 | 47 | 65 | 1.0 | 4.0 | 0.00 | 0.00 | 0.00 | 79 | 1018.4 |
| 20260505025045 | 47 | 44 | 2.0 | 5.0 | 0.00 | 0.00 | 0.00 | 79 | 1018.4 |
| 20260505024541 | 47 | 50 | 3.0 | 5.0 | 0.00 | 0.00 | 0.00 | 78 | 1018.5 |
| 20260505024040 | 48 | 49 | 2.0 | 4.0 | 0.00 | 0.00 | 0.00 | 78 | 1018.5 |
| 20260505023543 | 48 | 50 | 2.0 | 5.0 | 0.00 | 0.00 | 0.00 | 79 | 1018.5 |
| 20260505023040 | 48 | 62 | 3.0 | 5.0 | 0.00 | 0.00 | 0.00 | 79 | 1018.6 |
| 20260505022539 | 47 | 57 | 3.0 | 5.0 | 0.00 | 0.00 | 0.00 | 79 | 1018.5 |
| 20260505022042 | 47 | 23 | 3.0 | 5.0 | 0.00 | 0.00 | 0.00 | 79 | 1018.6 |
| 20260505021540 | 47 | 32 | 3.0 | 5.0 | 0.00 | 0.00 | 0.00 | 79 | 1018.6 |
| 20260505021037 | 47 | 49 | 3.0 | 5.0 | 0.00 | 0.00 | 0.00 | 79 | 1018.6 |
| 20260505020537 | 47 | 22 | 2.0 | 5.0 | 0.00 | 0.00 | 0.00 | 78 | 1018.6 |
| 20260505020041 | 48 | 36 | 3.0 | 5.0 | 0.00 | 0.00 | 0.00 | 77 | 1018.6 |
| 20260505015537 | 48 | 26 | 3.0 | 5.0 | 0.00 | 0.00 | 0.00 | 77 | 1018.7 |
| 20260505015036 | 48 | 55 | 3.0 | 6.0 | 0.00 | 0.00 | 0.00 | 77 | 1018.7 |
| 20260505014541 | 48 | 46 | 4.0 | 9.0 | 0.00 | 0.00 | 0.00 | 77 | 1018.8 |
| 20260505014135 | 48 | 64 | 5.0 | 9.0 | 0.00 | 0.00 | 0.00 | 77 | 1018.8 |
| 20260505013534 | 48 | 32 | 4.0 | 6.0 | 0.00 | 0.00 | 0.00 | 77 | 1018.8 |
| 20260505013034 | 48 | 29 | 3.0 | 6.0 | 0.00 | 0.00 | 0.00 | 78 | 1018.8 |
| 20260505012534 | 47 | 60 | 4.0 | 7.0 | 0.00 | 0.00 | 0.00 | 78 | 1018.9 |
| 20260505012037 | 47 | 45 | 4.0 | 7.0 | 0.00 | 0.00 | 0.00 | 78 | 1018.8 |
| 20260505011537 | 47 | 31 | 5.0 | 8.0 | 0.00 | 0.00 | 0.00 | 78 | 1018.8 |
| 20260505011032 | 47 | 24 | 3.0 | 6.0 | 0.00 | 0.00 | 0.00 | 78 | 1018.8 |
| 20260505010535 | 47 | 28 | 5.0 | 7.0 | 0.00 | 0.00 | 0.00 | 78 | 1018.9 |
| 20260505010033 | 47 | 49 | 5.0 | 7.0 | 0.00 | 0.00 | 0.00 | 78 | 1018.9 |
| 20260505005532 | 47 | 51 | 4.0 | 6.0 | 0.00 | 0.00 | 0.00 | 78 | 1019.0 |
| 20260505005031 | 47 | 24 | 5.0 | 6.0 | 0.00 | 0.00 | 0.00 | 78 | 1019.0 |
| 20260505004531 | 48 | 44 | 5.0 | 6.0 | 0.00 | 0.00 | 0.00 | 77 | 1019.0 |
| 20260505004030 | 48 | 32 | 3.0 | 5.0 | 0.00 | 0.00 | 0.00 | 77 | 1018.9 |
| 20260505003529 | 48 | 44 | 3.0 | 5.0 | 0.00 | 0.00 | 0.00 | 78 | 1019.0 |
| 20260505003029 | 48 | 49 | 3.0 | 5.0 | 0.00 | 0.00 | 0.00 | 78 | 1019.0 |
| 20260505002529 | 48 | 46 | 3.0 | 6.0 | 0.00 | 0.00 | 0.00 | 78 | 1019.2 |
| 20260505002028 | 48 | 35 | 4.0 | 6.0 | 0.00 | 0.00 | 0.00 | 78 | 1019.2 |
| 20260505001527 | 48 | 45 | 4.0 | 6.0 | 0.00 | 0.00 | 0.00 | 78 | 1019.2 |
| 20260505001026 | 48 | 53 | 3.0 | 6.0 | 0.00 | 0.00 | 0.00 | 79 | 1019.3 |
| 20260505000526 | 47 | 43 | 4.0 | 6.0 | 0.00 | 0.00 | 0.00 | 79 | 1019.3 |
| 20260505000040 | 47 | 30 | 4.0 | 5.0 | 0.00 | 0.00 | 0.00 | 79 | 1019.3 |
| 20260504235525 | 47 | 26 | 3.0 | 6.0 | 0.00 | 0.00 | 0.00 | 79 | 1019.4 |
| 20260504235024 | 47 | 32 | 4.0 | 6.0 | 0.00 | 0.00 | 0.00 | 78 | 1019.4 |
| 20260504234525 | 47 | 36 | 3.0 | 4.0 | 0.00 | 0.00 | 0.00 | 78 | 1019.5 |
| 20260504234022 | 47 | 32 | 3.0 | 5.0 | 0.00 | 0.00 | 0.00 | 77 | 1019.5 |
| 20260504233521 | 48 | 28 | 3.0 | 5.0 | 0.00 | 0.00 | 0.00 | 76 | 1019.5 |
| 20260504233020 | 48 | 37 | 3.0 | 5.0 | 0.00 | 0.00 | 0.00 | 76 | 1019.6 |
| 20260504232521 | 48 | 46 | 2.0 | 5.0 | 0.00 | 0.00 | 0.00 | 76 | 1019.6 |
| 20260504232022 | 48 | 44 | 3.0 | 6.0 | 0.00 | 0.00 | 0.00 | 76 | 1019.6 |
| 20260504231518 | 48 | 37 | 4.0 | 6.0 | 0.00 | 0.00 | 0.00 | 75 | 1019.6 |
| 20260504231019 | 49 | 13 | 4.0 | 5.0 | 0.00 | 0.00 | 0.00 | 74 | 1019.7 |
| 20260504230516 | 49 | 67 | 2.0 | 5.0 | 0.00 | 0.00 | 0.00 | 75 | 1019.7 |
| 20260504230016 | 49 | 51 | 3.0 | 6.0 | 0.00 | 0.00 | 0.00 | 75 | 1019.8 |
| 20260504225517 | 49 | 42 | 4.0 | 6.0 | 0.00 | 0.00 | 0.00 | 75 | 1019.9 |
| 20260504225014 | 49 | 51 | 4.0 | 6.0 | 0.00 | 0.00 | 0.00 | 75 | 1020.0 |
| 20260504224517 | 48 | 34 | 4.0 | 6.0 | 0.00 | 0.00 | 0.00 | 74 | 1020.0 |
| 20260504224018 | 49 | 20 | 4.0 | 5.0 | 0.00 | 0.00 | 0.00 | 74 | 1020.0 |
| 20260504223512 | 49 | 48 | 3.0 | 4.0 | 0.00 | 0.00 | 0.00 | 73 | 1020.1 |
| 20260504223011 | 49 | 52 | 2.0 | 5.0 | 0.00 | 0.00 | 0.00 | 73 | 1020.1 |
| 20260504222510 | 49 | 54 | 2.0 | 5.0 | 0.00 | 0.00 | 0.00 | 73 | 1020.2 |
| 20260504222010 | 49 | 20 | 4.0 | 5.0 | 0.00 | 0.00 | 0.00 | 72 | 1020.1 |
| 20260504221509 | 50 | 66 | 2.0 | 5.0 | 0.00 | 0.00 | 0.00 | 72 | 1020.1 |
| 20260504221008 | 50 | 38 | 2.0 | 5.0 | 0.00 | 0.00 | 0.00 | 71 | 1020.1 |
| 20260504220508 | 50 | 36 | 3.0 | 9.0 | 0.00 | 0.00 | 0.00 | 71 | 1020.1 |
| 20260504220023 | 50 | 67 | 4.0 | 9.0 | 0.00 | 0.00 | 0.00 | 71 | 1020.3 |
| 20260504215510 | 50 | 29 | 4.0 | 7.0 | 0.00 | 0.00 | 0.00 | 71 | 1020.2 |
| 20260504215010 | 49 | 44 | 5.0 | 7.0 | 0.00 | 0.00 | 0.00 | 70 | 1020.3 |
| 20260504214506 | 50 | 15 | 3.0 | 5.0 | 0.00 | 0.00 | 0.00 | 69 | 1020.4 |
| 20260504214005 | 50 | 30 | 2.0 | 5.0 | 0.00 | 0.00 | 0.00 | 68 | 1020.1 |
| 20260504213505 | 50 | 74 | 2.0 | 6.0 | 0.00 | 0.00 | 0.00 | 69 | 1020.2 |
| 20260504213008 | 50 | 37 | 3.0 | 6.0 | 0.00 | 0.00 | 0.00 | 69 | 1020.2 |
| 20260504212503 | 50 | 39 | 4.0 | 6.0 | 0.00 | 0.00 | 0.00 | 67 | 1020.1 |
| 20260504212001 | 50 | 28 | 3.0 | 5.0 | 0.00 | 0.00 | 0.00 | 66 | 1020.1 |
| 20260504211501 | 51 | 38 | 3.0 | 5.0 | 0.00 | 0.00 | 0.00 | 65 | 1020.0 |
| 20260504211059 | 51 | 43 | 3.0 | 5.0 | 0.00 | 0.00 | 0.00 | 64 | 1020.0 |
| 20260504210600 | 51 | 35 | 3.0 | 6.0 | 0.00 | 0.00 | 0.00 | 64 | 1020.1 |
| 20260504210104 | 51 | 43 | 3.0 | 8.0 | 0.00 | 0.00 | 0.00 | 64 | 1020.1 |
| 20260504205559 | 51 | 55 | 5.0 | 8.0 | 0.00 | 0.00 | 0.00 | 64 | 1020.2 |
| 20260504205059 | 51 | 36 | 4.0 | 7.0 | 0.00 | 0.00 | 0.00 | 64 | 1020.1 |
| 20260504204604 | 51 | 42 | 4.0 | 8.0 | 0.00 | 0.00 | 0.00 | 64 | 1020.1 |
| 20260504204059 | 52 | 35 | 3.0 | 6.0 | 0.00 | 0.00 | 0.00 | 65 | 1020.1 |
| 20260504203557 | 52 | 27 | 3.0 | 5.0 | 0.00 | 0.00 | 0.00 | 64 | 1020.2 |
| 20260504203058 | 52 | 59 | 2.0 | 5.0 | 0.00 | 0.00 | 0.00 | 66 | 1020.3 |
| 20260504202557 | 53 | 39 | 2.0 | 4.0 | 0.00 | 0.00 | 0.00 | 67 | 1020.2 |
| 20260504202057 | 54 | 24 | 3.0 | 5.0 | 0.00 | 0.00 | 0.00 | 65 | 1020.3 |
| 20260504201557 | 54 | 20 | 2.0 | 5.0 | 0.00 | 0.00 | 0.00 | 65 | 1020.4 |
| 20260504201056 | 56 | 355 | 0.0 | 2.0 | 0.00 | 0.00 | 0.00 | 67 | 1020.4 |
| 20260504200556 | 56 | 351 | 1.0 | 4.0 | 0.00 | 0.00 | 0.00 | 65 | 1020.4 |
| 20260504200056 | 56 | 355 | 2.0 | 4.0 | 0.00 | 0.00 | 0.00 | 64 | 1020.5 |
| 20260504195555 | 57 | 285 | 0.0 | 3.0 | 0.00 | 0.00 | 0.00 | 65 | 1020.5 |
| 20260504195055 | 58 | 267 | 0.0 | 3.0 | 0.00 | 0.00 | 0.00 | 64 | 1020.4 |
| 20260504194559 | 58 | 268 | 1.0 | 3.0 | 0.00 | 0.00 | 0.00 | 64 | 1020.4 |
| 20260504194055 | 58 | 267 | 0.0 | 3.0 | 0.00 | 0.00 | 0.00 | 64 | 1020.4 |
| 20260504193555 | 58 | 267 | 1.0 | 3.0 | 0.00 | 0.00 | 0.00 | 64 | 1020.4 |
| 20260504193111 | 58 | 266 | 0.0 | 4.0 | 0.00 | 0.00 | 0.00 | 64 | 1020.4 |
| 20260504192556 | 58 | 262 | 1.0 | 5.0 | 0.00 | 0.00 | 0.00 | 63 | 1020.3 |
| 20260504192059 | 58 | 255 | 3.0 | 5.0 | 0.00 | 0.00 | 0.00 | 63 | 1020.2 |
| 20260504191555 | 58 | 252 | 2.0 | 4.0 | 0.00 | 0.00 | 0.00 | 63 | 1020.1 |
| 20260504191054 | 58 | 219 | 2.0 | 3.0 | 0.00 | 0.00 | 0.00 | 63 | 1020.2 |
| 20260504190554 | 58 | 231 | 0.0 | 3.0 | 0.00 | 0.00 | 0.00 | 62 | 1020.2 |
| 20260504190106 | 59 | 232 | 1.0 | 9.0 | 0.00 | 0.00 | 0.00 | 62 | 1020.1 |